Time,TemperatureF,DewpointF,PressureIn,WindDirection,WindDirectionDegrees,WindSpeedMPH,WindSpeedGustMPH,Humidity,HourlyPrecipIn,Conditions,Clouds,dailyrainin,SoftwareType,DateUTC
2013-02-24 00:00:00,19.9,18.0,29.90,NW,325,0.0,2.3,92,0.00,OVC,,0.00,WeatherDisplay:10.37,2013-02-24 06:00:00,
2013-02-24 00:05:00,19.8,18.1,29.90,NW,325,0.0,0.0,93,0.00,FEW,,0.00,WeatherDisplay:10.37,2013-02-24 06:05:00,
2013-02-24 00:10:00,19.7,18.0,29.91,NW,325,0.0,0.0,93,0.00,FEW,,0.00,WeatherDisplay:10.37,2013-02-24 06:10:00,
2013-02-24 00:15:00,19.5,17.8,29.91,NW,325,0.0,0.0,93,0.00,FEW,,0.00,WeatherDisplay:10.37,2013-02-24 06:15:00,
2013-02-24 00:20:00,19.3,17.9,29.91,NW,325,0.0,0.0,94,0.00,FEW,,0.00,WeatherDisplay:10.37,2013-02-24 06:20:00,
2013-02-24 00:25:00,19.2,17.8,29.91,WNW,292,0.3,3.0,94,0.00,FEW,,0.00,WeatherDisplay:10.37,2013-02-24 06:25:00,
2013-02-24 00:30:00,19.3,17.9,29.91,WSW,239,0.6,0.0,94,0.00,FEW,,0.00,WeatherDisplay:10.37,2013-02-24 06:30:00,
2013-02-24 00:35:00,19.3,17.9,29.92,SSW,198,1.4,3.5,94,0.00,FEW,,0.00,WeatherDisplay:10.37,2013-02-24 06:35:00,
2013-02-24 00:40:00,19.1,17.7,29.92,SSW,198,0.1,0.4,94,0.00,FEW,,0.00,WeatherDisplay:10.37,2013-02-24 06:40:00,
2013-02-24 00:45:00,19.0,17.8,29.92,NW,307,0.5,3.5,95,0.00,FEW,,0.00,WeatherDisplay:10.37,2013-02-24 06:45:00,
2013-02-24 00:50:00,19.1,17.9,29.92,NW,324,0.1,2.3,95,0.00,FEW,,0.00,WeatherDisplay:10.37,2013-02-24 06:50:00,
2013-02-24 00:55:00,19.0,17.8,29.92,NW,308,2.3,3.5,95,0.00,FEW,,0.00,WeatherDisplay:10.37,2013-02-24 06:55:00,
2013-02-24 01:00:00,19.0,18.0,29.92,NNE,19,1.8,4.6,96,0.00,FEW,,0.00,WeatherDisplay:10.37,2013-02-24 07:00:00,
2013-02-24 01:05:00,19.2,18.2,29.92,NW,311,2.8,4.6,96,0.00,CLR,,0.00,WeatherDisplay:10.37,2013-02-24 07:05:00,
2013-02-24 01:10:00,19.0,18.0,29.92,WNW,302,2.4,5.8,96,0.00,CLR,,0.00,WeatherDisplay:10.37,2013-02-24 07:10:00,
2013-02-24 01:15:00,19.3,18.3,29.92,WNW,283,2.0,4.6,96,0.00,CLR,,0.00,WeatherDisplay:10.37,2013-02-24 07:15:00,
2013-02-24 01:20:00,19.2,18.2,29.92,WNW,291,3.1,5.4,96,0.00,CLR,,0.00,WeatherDisplay:10.37,2013-02-24 07:20:00,
2013-02-24 01:25:00,19.4,18.4,29.92,WSW,247,1.6,5.8,96,0.00,CLR,,0.00,WeatherDisplay:10.37,2013-02-24 07:25:00,
2013-02-24 01:30:00,19.4,18.4,29.93,West,260,1.4,2.3,96,0.00,CLR,,0.00,WeatherDisplay:10.37,2013-02-24 07:30:00,
2013-02-24 01:35:00,19.3,18.3,29.92,WNW,300,2.7,4.6,96,0.00,CLR,,0.00,WeatherDisplay:10.37,2013-02-24 07:35:00,
2013-02-24 01:40:00,19.2,18.2,29.93,WNW,292,2.2,4.6,96,0.00,CLR,,0.00,WeatherDisplay:10.37,2013-02-24 07:40:00,
2013-02-24 01:45:00,19.0,18.0,29.93,NW,322,2.2,4.6,96,0.00,CLR,,0.00,WeatherDisplay:10.37,2013-02-24 07:45:00,
2013-02-24 01:50:00,19.3,18.3,29.93,WNW,291,2.5,4.6,96,0.00,CLR,,0.00,WeatherDisplay:10.37,2013-02-24 07:50:00,
2013-02-24 01:55:00,19.2,18.2,29.93,WSW,254,1.3,3.5,96,0.00,CLR,,0.00,WeatherDisplay:10.37,2013-02-24 07:55:00,
2013-02-24 02:00:00,19.2,18.2,29.93,West,273,2.1,3.5,96,0.00,CLR,,0.00,WeatherDisplay:10.37,2013-02-24 08:00:00,
2013-02-24 02:05:00,19.2,18.2,29.93,East,88,0.6,3.5,96,0.00,CLR,,0.00,WeatherDisplay:10.37,2013-02-24 08:05:00,
2013-02-24 02:10:00,19.1,18.1,29.93,West,266,1.2,2.3,96,0.00,CLR,,0.00,WeatherDisplay:10.37,2013-02-24 08:10:00,
2013-02-24 02:15:00,19.1,18.4,29.93,WNW,301,2.7,4.6,97,0.00,CLR,,0.00,WeatherDisplay:10.37,2013-02-24 08:15:00,
2013-02-24 02:20:00,19.0,18.3,29.93,West,277,3.5,5.8,97,0.00,CLR,,0.00,WeatherDisplay:10.37,2013-02-24 08:20:00,
2013-02-24 02:25:00,18.8,18.1,29.93,West,268,3.2,5.8,97,0.00,CLR,,0.00,WeatherDisplay:10.37,2013-02-24 08:25:00,
2013-02-24 02:30:00,18.7,18.0,29.93,NW,325,3.7,4.7,97,0.00,CLR,,0.00,WeatherDisplay:10.37,2013-02-24 08:30:00,
2013-02-24 02:35:00,18.7,18.0,29.93,NW,311,2.9,4.6,97,0.00,CLR,,0.00,WeatherDisplay:10.37,2013-02-24 08:35:00,
2013-02-24 02:40:00,18.8,18.1,29.93,West,274,2.3,3.1,97,0.00,CLR,,0.00,WeatherDisplay:10.37,2013-02-24 08:40:00,
2013-02-24 02:45:00,18.7,18.0,29.93,NW,305,1.2,2.9,97,0.00,CLR,,0.00,WeatherDisplay:10.37,2013-02-24 08:45:00,
2013-02-24 02:50:00,18.6,17.9,29.93,West,266,1.6,2.3,97,0.00,CLR,,0.00,WeatherDisplay:10.37,2013-02-24 08:50:00,
2013-02-24 02:55:00,18.4,17.9,29.93,NW,321,1.3,2.0,98,0.00,CLR,,0.00,WeatherDisplay:10.37,2013-02-24 08:55:00,
2013-02-24 03:00:00,18.3,17.8,29.93,WNW,291,3.8,5.8,98,0.00,CLR,,0.00,WeatherDisplay:10.37,2013-02-24 09:00:00,
2013-02-24 03:05:00,18.3,17.8,29.93,NW,305,2.8,4.6,98,0.00,CLR,,0.00,WeatherDisplay:10.37,2013-02-24 09:05:00,
2013-02-24 03:10:00,18.1,17.9,29.93,West,263,4.0,5.8,99,0.00,CLR,,0.00,WeatherDisplay:10.37,2013-02-24 09:10:00,
2013-02-24 03:15:00,18.3,18.1,29.93,West,278,1.9,5.8,99,0.00,CLR,,0.00,WeatherDisplay:10.37,2013-02-24 09:15:00,
2013-02-24 03:20:00,18.3,18.1,29.93,West,280,1.7,2.3,99,0.00,CLR,,0.00,WeatherDisplay:10.37,2013-02-24 09:20:00,
2013-02-24 03:25:00,18.2,18.0,29.93,NW,307,2.5,3.5,99,0.00,CLR,,0.00,WeatherDisplay:10.37,2013-02-24 09:25:00,
2013-02-24 03:30:00,18.1,17.9,29.93,WNW,283,3.1,4.6,99,0.00,CLR,,0.00,WeatherDisplay:10.37,2013-02-24 09:30:00,
2013-02-24 03:35:00,18.0,17.8,29.93,West,280,2.9,3.5,99,0.00,CLR,,0.00,WeatherDisplay:10.37,2013-02-24 09:35:00,
2013-02-24 03:40:00,17.9,17.7,29.93,WNW,285,2.3,4.6,99,0.00,CLR,,0.00,WeatherDisplay:10.37,2013-02-24 09:40:00,
2013-02-24 03:45:00,17.9,17.7,29.93,WNW,294,2.3,2.7,99,0.00,CLR,,0.00,WeatherDisplay:10.37,2013-02-24 09:45:00,
2013-02-24 03:50:00,17.8,17.6,29.93,West,273,2.0,3.5,99,0.00,CLR,,0.00,WeatherDisplay:10.37,2013-02-24 09:50:00,
2013-02-24 03:55:00,17.3,17.1,29.93,West,274,1.9,2.3,99,0.00,CLR,,0.00,WeatherDisplay:10.37,2013-02-24 09:55:00,
2013-02-24 04:00:00,17.1,16.9,29.94,West,281,2.4,3.5,99,0.00,CLR,,0.00,WeatherDisplay:10.37,2013-02-24 10:00:00,
2013-02-24 04:05:00,16.9,16.9,29.94,West,263,3.5,5.8,100,0.00,CLR,,0.00,WeatherDisplay:10.37,2013-02-24 10:05:00,
2013-02-24 04:10:00,16.9,16.9,29.94,West,260,2.7,5.8,100,0.00,CLR,,0.00,WeatherDisplay:10.37,2013-02-24 10:10:00,
2013-02-24 04:15:00,16.9,16.9,29.94,West,273,2.2,4.6,100,0.00,CLR,,0.00,WeatherDisplay:10.37,2013-02-24 10:15:00,
2013-02-24 04:20:00,16.8,16.8,29.95,West,266,3.5,4.6,100,0.00,CLR,,0.00,WeatherDisplay:10.37,2013-02-24 10:20:00,
2013-02-24 04:25:00,16.9,16.9,29.95,SSW,204,3.1,4.6,100,0.00,CLR,,0.00,WeatherDisplay:10.37,2013-02-24 10:25:00,
2013-02-24 04:30:00,17.2,17.2,29.95,West,280,1.6,2.3,100,0.00,CLR,,0.00,WeatherDisplay:10.37,2013-02-24 10:30:00,
2013-02-24 04:35:00,17.0,17.0,29.95,WNW,291,2.9,3.5,100,0.00,CLR,,0.00,WeatherDisplay:10.37,2013-02-24 10:35:00,
2013-02-24 04:40:00,17.3,17.3,29.94,WNW,295,4.0,5.8,100,0.00,CLR,,0.00,WeatherDisplay:10.37,2013-02-24 10:40:00,
2013-02-24 04:45:00,17.4,17.4,29.94,NW,314,3.9,6.9,100,0.00,CLR,,0.00,WeatherDisplay:10.37,2013-02-24 10:45:00,
2013-02-24 04:50:00,17.8,17.8,29.95,WNW,301,5.4,8.1,100,0.00,CLR,,0.00,WeatherDisplay:10.37,2013-02-24 10:50:00,
2013-02-24 04:55:00,17.7,17.7,29.95,WNW,292,4.4,5.8,100,0.00,CLR,,0.00,WeatherDisplay:10.37,2013-02-24 10:55:00,
2013-02-24 05:00:00,17.3,17.3,29.95,WNW,290,4.4,6.9,100,0.00,CLR,,0.00,WeatherDisplay:10.37,2013-02-24 11:00:00,
2013-02-24 05:05:00,17.3,17.3,29.96,West,261,2.3,3.5,100,0.00,CLR,,0.00,WeatherDisplay:10.37,2013-02-24 11:05:00,
2013-02-24 05:10:00,17.1,17.1,29.96,WNW,290,3.0,3.7,100,0.00,CLR,,0.00,WeatherDisplay:10.37,2013-02-24 11:10:00,
2013-02-24 05:15:00,17.3,17.3,29.96,WNW,294,4.4,5.8,100,0.00,CLR,,0.00,WeatherDisplay:10.37,2013-02-24 11:15:00,
2013-02-24 05:20:00,17.3,17.3,29.96,NW,309,3.6,4.6,100,0.00,CLR,,0.00,WeatherDisplay:10.37,2013-02-24 11:20:00,
2013-02-24 05:25:00,16.8,16.8,29.97,WNW,295,3.9,4.6,100,0.00,CLR,,0.00,WeatherDisplay:10.37,2013-02-24 11:25:00,
2013-02-24 05:30:00,16.9,16.9,29.97,NW,305,3.9,5.8,100,0.00,CLR,,0.00,WeatherDisplay:10.37,2013-02-24 11:30:00,
2013-02-24 05:35:00,17.1,17.1,29.97,WNW,284,4.4,4.6,100,0.00,CLR,,0.00,WeatherDisplay:10.37,2013-02-24 11:35:00,
2013-02-24 05:40:00,17.2,17.2,29.97,WNW,288,3.7,5.2,100,0.00,CLR,,0.00,WeatherDisplay:10.37,2013-02-24 11:40:00,
2013-02-24 05:45:00,17.1,17.1,29.97,WNW,302,4.8,8.1,100,0.00,CLR,,0.00,WeatherDisplay:10.37,2013-02-24 11:45:00,
2013-02-24 05:50:00,17.1,17.1,29.97,WNW,290,4.4,5.8,100,0.00,CLR,,0.00,WeatherDisplay:10.37,2013-02-24 11:50:00,
2013-02-24 05:55:00,17.2,17.2,29.97,West,274,4.7,5.8,100,0.00,CLR,,0.00,WeatherDisplay:10.37,2013-02-24 11:55:00,
2013-02-24 06:00:00,16.9,16.9,29.98,West,273,4.5,6.5,100,0.00,CLR,,0.00,WeatherDisplay:10.37,2013-02-24 12:00:00,
2013-02-24 06:05:00,17.0,17.0,29.98,WNW,287,4.4,6.9,100,0.00,CLR,,0.00,WeatherDisplay:10.37,2013-02-24 12:05:00,
2013-02-24 06:10:00,16.7,16.7,29.98,WNW,292,4.5,6.3,100,0.00,CLR,,0.00,WeatherDisplay:10.37,2013-02-24 12:10:00,
2013-02-24 06:15:00,16.6,16.6,29.98,WNW,302,4.4,4.6,100,0.00,CLR,,0.00,WeatherDisplay:10.37,2013-02-24 12:15:00,
2013-02-24 06:20:00,16.9,16.9,29.99,West,261,4.7,6.9,100,0.00,CLR,,0.00,WeatherDisplay:10.37,2013-02-24 12:20:00,
2013-02-24 06:25:00,16.8,16.8,29.99,WNW,291,4.3,6.9,100,0.00,CLR,,0.00,WeatherDisplay:10.37,2013-02-24 12:25:00,
2013-02-24 06:30:00,16.7,16.7,29.99,WNW,295,4.2,6.9,100,0.00,CLR,,0.00,WeatherDisplay:10.37,2013-02-24 12:30:00,
2013-02-24 06:35:00,16.5,16.5,29.99,West,281,4.5,6.9,100,0.00,CLR,,0.00,WeatherDisplay:10.37,2013-02-24 12:35:00,
2013-02-24 06:40:00,16.6,16.6,30.00,NW,305,5.0,6.8,100,0.00,CLR,,0.00,WeatherDisplay:10.37,2013-02-24 12:40:00,
2013-02-24 06:45:00,16.4,16.4,30.00,NW,311,4.2,4.6,100,0.00,CLR,,0.00,WeatherDisplay:10.37,2013-02-24 12:45:00,
2013-02-24 06:50:00,16.5,16.5,30.00,NW,308,4.4,5.8,100,0.00,CLR,,0.00,WeatherDisplay:10.37,2013-02-24 12:50:00,
2013-02-24 06:55:00,16.7,16.7,30.00,SW,236,4.2,5.8,100,0.00,CLR,,0.00,WeatherDisplay:10.37,2013-02-24 12:55:00,
2013-02-24 07:00:00,16.5,16.5,30.00,WNW,295,4.2,6.9,100,0.00,CLR,,0.00,WeatherDisplay:10.37,2013-02-24 13:00:00,
2013-02-24 07:05:00,16.4,16.4,30.01,NW,319,3.8,4.6,100,0.00,CLR,,0.00,WeatherDisplay:10.37,2013-02-24 13:05:00,
2013-02-24 07:10:00,16.3,16.3,30.00,WNW,297,3.8,6.9,100,0.00,CLR,,0.00,WeatherDisplay:10.37,2013-02-24 13:10:00,
2013-02-24 07:15:00,16.7,16.7,30.00,NW,304,3.9,5.8,100,0.00,CLR,,0.00,WeatherDisplay:10.37,2013-02-24 13:15:00,
2013-02-24 07:20:00,17.0,17.0,30.00,WNW,300,3.1,3.9,100,0.00,CLR,,0.00,WeatherDisplay:10.37,2013-02-24 13:20:00,
2013-02-24 07:25:00,17.5,17.5,30.01,WNW,298,3.6,4.6,100,0.00,CLR,,0.00,WeatherDisplay:10.37,2013-02-24 13:25:00,
2013-02-24 07:30:00,17.9,17.9,30.01,NW,315,4.3,5.8,100,0.00,CLR,,0.00,WeatherDisplay:10.37,2013-02-24 13:30:00,
2013-02-24 07:35:00,18.3,18.3,30.01,WNW,302,4.9,5.8,100,0.00,CLR,,0.00,WeatherDisplay:10.37,2013-02-24 13:35:00,
2013-02-24 07:40:00,18.7,18.7,30.01,NW,322,4.1,6.9,100,0.00,CLR,,0.00,WeatherDisplay:10.37,2013-02-24 13:40:00,
2013-02-24 07:45:00,18.8,18.8,30.01,WNW,298,3.6,5.8,100,0.00,CLR,,0.00,WeatherDisplay:10.37,2013-02-24 13:45:00,
2013-02-24 07:50:00,19.1,19.1,30.01,NW,314,4.3,7.8,100,0.00,CLR,,0.00,WeatherDisplay:10.37,2013-02-24 13:50:00,
2013-02-24 07:55:00,19.1,19.1,30.01,NW,326,6.1,8.1,100,0.00,CLR,,0.00,WeatherDisplay:10.37,2013-02-24 13:55:00,
2013-02-24 08:00:00,19.5,19.5,30.01,NW,319,5.2,6.1,100,0.00,CLR,,0.00,WeatherDisplay:10.37,2013-02-24 14:00:00,
2013-02-24 08:05:00,19.6,19.4,30.01,NW,319,5.5,8.1,99,0.00,CLR,,0.00,WeatherDisplay:10.37,2013-02-24 14:05:00,
2013-02-24 08:10:00,19.9,19.7,30.02,NW,312,4.9,7.1,99,0.00,CLR,,0.00,WeatherDisplay:10.37,2013-02-24 14:10:00,
2013-02-24 08:15:00,20.2,20.0,30.02,WNW,287,4.2,5.8,99,0.00,CLR,,0.00,WeatherDisplay:10.37,2013-02-24 14:15:00,
2013-02-24 08:20:00,20.3,19.8,30.02,NW,305,5.4,6.5,98,0.00,CLR,,0.00,WeatherDisplay:10.37,2013-02-24 14:20:00,
2013-02-24 08:25:00,20.6,20.1,30.03,NW,312,3.4,5.8,98,0.00,CLR,,0.00,WeatherDisplay:10.37,2013-02-24 14:25:00,
2013-02-24 08:30:00,21.1,20.6,30.03,NW,318,2.8,4.6,98,0.00,CLR,,0.00,WeatherDisplay:10.37,2013-02-24 14:30:00,
2013-02-24 08:35:00,21.3,20.3,30.03,WNW,284,4.7,5.8,96,0.00,CLR,,0.00,WeatherDisplay:10.37,2013-02-24 14:35:00,
2013-02-24 08:40:00,21.3,20.3,30.03,NW,314,4.5,6.9,96,0.00,CLR,,0.00,WeatherDisplay:10.37,2013-02-24 14:40:00,
2013-02-24 08:45:00,21.4,20.2,30.03,NW,322,4.2,6.9,95,0.00,CLR,,0.00,WeatherDisplay:10.37,2013-02-24 14:45:00,
2013-02-24 08:50:00,21.6,20.1,30.03,NW,326,4.5,5.8,94,0.00,CLR,,0.00,WeatherDisplay:10.37,2013-02-24 14:50:00,
2013-02-24 08:55:00,22.3,20.8,30.03,NNW,335,2.5,4.6,94,0.00,CLR,,0.00,WeatherDisplay:10.37,2013-02-24 14:55:00,
2013-02-24 09:00:00,22.9,21.4,30.03,West,280,3.6,6.0,94,0.00,CLR,,0.00,WeatherDisplay:10.37,2013-02-24 15:00:00,
2013-02-24 09:05:00,23.0,20.8,30.04,WNW,301,4.9,6.9,91,0.00,CLR,,0.00,WeatherDisplay:10.37,2013-02-24 15:05:00,
2013-02-24 09:10:00,23.4,21.4,30.04,NNW,332,3.7,5.8,92,0.00,CLR,,0.00,WeatherDisplay:10.37,2013-02-24 15:10:00,
2013-02-24 09:15:00,23.7,21.2,30.04,West,264,4.1,5.8,90,0.00,CLR,,0.00,WeatherDisplay:10.37,2013-02-24 15:15:00,
2013-02-24 09:20:00,23.8,20.8,30.04,WNW,292,5.3,8.1,88,0.00,CLR,,0.00,WeatherDisplay:10.37,2013-02-24 15:20:00,
2013-02-24 09:25:00,24.5,21.7,30.05,WSW,240,3.5,5.8,89,0.00,CLR,,0.00,WeatherDisplay:10.37,2013-02-24 15:25:00,
2013-02-24 09:30:00,25.2,21.9,30.05,West,280,4.8,5.8,87,0.00,CLR,,0.00,WeatherDisplay:10.37,2013-02-24 15:30:00,
2013-02-24 09:35:00,25.6,22.0,30.05,WSW,253,1.7,4.6,86,0.00,CLR,,0.00,WeatherDisplay:10.37,2013-02-24 15:35:00,
2013-02-24 09:40:00,25.9,21.7,30.05,SW,216,2.4,5.8,84,0.00,CLR,,0.00,WeatherDisplay:10.37,2013-02-24 15:40:00,
2013-02-24 09:45:00,26.7,21.7,30.05,SSW,209,5.2,7.5,81,0.00,CLR,,0.00,WeatherDisplay:10.37,2013-02-24 15:45:00,
2013-02-24 09:50:00,26.5,20.6,30.05,West,267,4.9,8.1,78,0.00,CLR,,0.00,WeatherDisplay:10.37,2013-02-24 15:50:00,
2013-02-24 09:55:00,26.9,21.6,30.05,WNW,283,4.7,6.9,80,0.00,CLR,,0.00,WeatherDisplay:10.37,2013-02-24 15:55:00,
2013-02-24 10:00:00,28.0,22.6,30.05,WSW,242,3.3,6.9,80,0.00,CLR,,0.00,WeatherDisplay:10.37,2013-02-24 16:00:00,
2013-02-24 10:05:00,28.1,21.5,30.05,WNW,285,4.3,4.6,76,0.00,CLR,,0.00,WeatherDisplay:10.37,2013-02-24 16:05:00,
2013-02-24 10:10:00,28.0,21.4,30.05,West,271,4.9,5.8,76,0.00,CLR,,0.00,WeatherDisplay:10.37,2013-02-24 16:10:00,
2013-02-24 10:15:00,27.9,21.0,30.05,WSW,252,4.7,8.1,75,0.00,CLR,,0.00,WeatherDisplay:10.37,2013-02-24 16:15:00,
2013-02-24 10:20:00,28.4,22.1,30.05,SW,229,4.3,5.8,77,0.00,CLR,,0.00,WeatherDisplay:10.37,2013-02-24 16:20:00,
2013-02-24 10:25:00,28.9,22.0,30.05,SW,220,3.5,8.1,75,0.00,CLR,,0.00,WeatherDisplay:10.37,2013-02-24 16:25:00,
2013-02-24 10:30:00,29.8,23.2,30.05,SW,229,3.0,4.6,76,0.00,CLR,,0.00,WeatherDisplay:10.37,2013-02-24 16:30:00,
2013-02-24 10:39:00,30.2,22.6,30.05,NW,307,3.7,5.8,73,0.00,CLR,,0.00,WeatherDisplay:10.37,2013-02-24 16:39:00,
2013-02-24 10:44:00,30.4,23.1,30.05,NW,321,1.7,3.5,74,0.00,CLR,,0.00,WeatherDisplay:10.37,2013-02-24 16:44:00,
2013-02-24 10:49:00,30.6,23.3,30.05,West,281,1.6,4.4,74,0.00,CLR,,0.00,WeatherDisplay:10.37,2013-02-24 16:49:00,
2013-02-24 10:54:00,31.2,23.2,30.05,WNW,284,1.5,2.9,72,0.00,CLR,,0.00,WeatherDisplay:10.37,2013-02-24 16:54:00,
2013-02-24 10:59:00,32.2,24.5,30.05,WSW,239,2.5,4.6,73,0.00,CLR,,0.00,WeatherDisplay:10.37,2013-02-24 16:59:00,
2013-02-24 11:04:00,32.5,23.1,30.05,WNW,302,1.8,4.6,68,0.00,CLR,,0.00,WeatherDisplay:10.37,2013-02-24 17:04:00,
2013-02-24 11:09:00,33.0,23.9,30.05,WSW,239,2.6,5.8,69,0.00,CLR,,0.00,WeatherDisplay:10.37,2013-02-24 17:09:00,
2013-02-24 11:14:00,33.8,24.4,30.05,SW,222,2.4,3.5,68,0.00,CLR,,0.00,WeatherDisplay:10.37,2013-02-24 17:14:00,
2013-02-24 11:19:00,33.8,24.0,30.05,WSW,243,2.6,4.6,67,0.00,CLR,,0.00,WeatherDisplay:10.37,2013-02-24 17:19:00,
2013-02-24 11:24:00,33.7,23.5,30.06,West,280,2.1,5.8,66,0.00,CLR,,0.00,WeatherDisplay:10.37,2013-02-24 17:24:00,
2013-02-24 11:29:00,33.7,23.9,30.06,WNW,283,0.8,3.5,67,0.00,CLR,,0.00,WeatherDisplay:10.37,2013-02-24 17:29:00,
2013-02-24 11:34:00,33.9,23.7,30.05,WSW,256,0.9,4.6,66,0.00,CLR,,0.00,WeatherDisplay:10.37,2013-02-24 17:34:00,
2013-02-24 11:39:00,34.6,24.4,30.06,WNW,291,1.9,3.5,66,0.00,CLR,,0.00,WeatherDisplay:10.37,2013-02-24 17:39:00,
2013-02-24 11:44:00,34.8,23.9,30.05,SSW,208,3.0,5.8,64,0.00,CLR,,0.00,WeatherDisplay:10.37,2013-02-24 17:44:00,
2013-02-24 11:49:00,34.6,23.7,30.05,West,261,2.8,4.6,64,0.00,CLR,,0.00,WeatherDisplay:10.37,2013-02-24 17:49:00,
2013-02-24 11:54:00,34.1,23.2,30.05,NW,321,2.8,4.6,64,0.00,CLR,,0.00,WeatherDisplay:10.37,2013-02-24 17:54:00,
2013-02-24 11:59:00,33.6,22.7,30.05,South,184,0.5,2.3,64,0.00,CLR,,0.00,WeatherDisplay:10.37,2013-02-24 17:59:00,
2013-02-24 12:04:00,34.0,23.5,30.05,SW,218,3.4,5.8,65,0.00,CLR,,0.00,WeatherDisplay:10.37,2013-02-24 18:04:00,
2013-02-24 12:09:00,34.2,23.7,30.05,West,274,1.8,3.5,65,0.00,CLR,,0.00,WeatherDisplay:10.37,2013-02-24 18:09:00,
2013-02-24 12:14:00,34.1,22.4,30.05,SW,216,3.3,4.6,62,0.00,CLR,,0.00,WeatherDisplay:10.37,2013-02-24 18:14:00,
2013-02-24 12:19:00,35.0,24.8,30.06,SSW,213,2.3,5.8,66,0.00,CLR,,0.00,WeatherDisplay:10.37,2013-02-24 18:19:00,
2013-02-24 12:24:00,35.9,24.1,30.05,SW,225,4.1,6.9,62,0.00,CLR,,0.00,WeatherDisplay:10.37,2013-02-24 18:24:00,
2013-02-24 12:29:00,35.9,23.7,30.05,West,260,2.7,5.8,61,0.00,CLR,,0.00,WeatherDisplay:10.37,2013-02-24 18:29:00,
2013-02-24 12:34:00,34.9,22.8,30.05,West,268,2.2,5.8,61,0.00,CLR,,0.00,WeatherDisplay:10.37,2013-02-24 18:34:00,
2013-02-24 12:39:00,35.9,24.5,30.05,South,174,2.5,5.8,63,0.00,CLR,,0.00,WeatherDisplay:10.37,2013-02-24 18:39:00,
2013-02-24 12:44:00,36.4,23.8,30.05,South,174,4.3,6.9,60,0.00,CLR,,0.00,WeatherDisplay:10.37,2013-02-24 18:44:00,
2013-02-24 12:49:00,36.3,23.3,30.05,SW,222,4.3,5.8,59,0.00,CLR,,0.00,WeatherDisplay:10.37,2013-02-24 18:49:00,
2013-02-24 12:54:00,37.0,24.4,30.05,WSW,250,3.1,3.5,60,0.00,CLR,,0.00,WeatherDisplay:10.37,2013-02-24 18:54:00,
2013-02-24 12:59:00,37.7,25.5,30.05,SW,230,1.3,3.5,61,0.00,CLR,,0.00,WeatherDisplay:10.37,2013-02-24 18:59:00,
2013-02-24 13:04:00,37.9,24.4,30.06,West,263,3.4,5.8,58,0.00,CLR,,0.00,WeatherDisplay:10.37,2013-02-24 19:04:00,
2013-02-24 13:09:00,37.8,24.3,30.05,SSW,198,5.7,9.2,58,0.00,CLR,,0.00,WeatherDisplay:10.37,2013-02-24 19:09:00,
2013-02-24 13:14:00,38.0,24.9,30.05,South,178,2.6,5.8,59,0.00,CLR,,0.00,WeatherDisplay:10.37,2013-02-24 19:14:00,
2013-02-24 13:19:00,37.8,24.3,30.04,West,261,3.6,6.9,58,0.00,CLR,,0.00,WeatherDisplay:10.37,2013-02-24 19:19:00,
2013-02-24 13:24:00,36.8,23.4,30.05,SW,236,2.6,5.8,58,0.00,CLR,,0.00,WeatherDisplay:10.37,2013-02-24 19:24:00,
2013-02-24 13:29:00,36.6,23.6,30.05,WSW,257,3.4,9.2,59,0.00,CLR,,0.00,WeatherDisplay:10.37,2013-02-24 19:29:00,
2013-02-24 13:34:00,37.1,24.5,30.05,SW,229,4.3,6.9,60,0.00,CLR,,0.00,WeatherDisplay:10.37,2013-02-24 19:34:00,
2013-02-24 13:39:00,37.4,24.4,30.05,SE,130,3.3,5.8,59,0.00,CLR,,0.00,WeatherDisplay:10.37,2013-02-24 19:39:00,
2013-02-24 13:44:00,37.1,24.1,30.05,SSW,205,6.5,8.1,59,0.00,CLR,,0.00,WeatherDisplay:10.37,2013-02-24 19:44:00,
2013-02-24 13:49:00,37.3,24.3,30.05,WSW,252,4.3,8.1,59,0.00,CLR,,0.00,WeatherDisplay:10.37,2013-02-24 19:49:00,
2013-02-24 13:54:00,36.8,23.8,30.05,SSW,213,4.3,4.3,59,0.00,CLR,,0.00,WeatherDisplay:10.37,2013-02-24 19:54:00,
2013-02-24 13:59:00,37.0,24.0,30.05,West,281,4.0,6.9,59,0.00,CLR,,0.00,WeatherDisplay:10.37,2013-02-24 19:59:00,
2013-02-24 14:04:00,37.2,24.2,30.05,SSW,198,1.9,8.1,59,0.00,CLR,,0.00,WeatherDisplay:10.37,2013-02-24 20:04:00,
2013-02-24 14:09:00,37.3,24.3,30.05,SSW,199,4.1,4.6,59,0.00,CLR,,0.00,WeatherDisplay:10.37,2013-02-24 20:09:00,
2013-02-24 14:14:00,37.6,25.0,30.05,SSW,209,4.2,5.8,60,0.00,CLR,,0.00,WeatherDisplay:10.37,2013-02-24 20:14:00,
2013-02-24 14:19:00,37.6,23.3,30.04,South,182,4.8,6.9,56,0.00,CLR,,0.00,WeatherDisplay:10.37,2013-02-24 20:19:00,
2013-02-24 14:24:00,37.2,23.4,30.04,West,274,4.2,6.9,57,0.00,CLR,,0.00,WeatherDisplay:10.37,2013-02-24 20:24:00,
2013-02-24 14:29:00,37.3,24.3,30.04,SSW,212,4.3,8.1,59,0.00,CLR,,0.00,WeatherDisplay:10.37,2013-02-24 20:29:00,
2013-02-24 14:34:00,37.3,23.4,30.04,South,181,4.6,8.1,57,0.00,CLR,,0.00,WeatherDisplay:10.37,2013-02-24 20:34:00,
2013-02-24 14:39:00,37.5,24.1,30.04,West,261,4.9,4.9,58,0.00,CLR,,0.00,WeatherDisplay:10.37,2013-02-24 20:39:00,
2013-02-24 14:44:00,38.1,24.6,30.04,SW,220,1.6,2.3,58,0.00,CLR,,0.00,WeatherDisplay:10.37,2013-02-24 20:44:00,
2013-02-24 14:50:00,38.3,24.0,30.04,WNW,292,2.4,5.8,56,0.00,CLR,,0.00,WeatherDisplay:10.37,2013-02-24 20:50:00,
2013-02-24 14:55:00,37.5,23.6,30.04,NW,304,3.2,4.6,57,0.00,CLR,,0.00,WeatherDisplay:10.37,2013-02-24 20:55:00,
2013-02-24 15:00:00,37.1,23.3,30.05,SSW,199,4.1,5.8,57,0.00,CLR,,0.00,WeatherDisplay:10.37,2013-02-24 21:00:00,
2013-02-24 15:05:00,37.4,24.0,30.05,WSW,237,4.3,8.1,58,0.00,FEW,,0.00,WeatherDisplay:10.37,2013-02-24 21:05:00,
2013-02-24 15:10:00,37.6,24.1,30.04,WNW,283,3.0,6.5,58,0.00,FEW,,0.00,WeatherDisplay:10.37,2013-02-24 21:10:00,
2013-02-24 15:15:00,36.9,23.1,30.05,South,175,5.6,8.1,57,0.00,FEW,,0.00,WeatherDisplay:10.37,2013-02-24 21:15:00,
2013-02-24 15:20:00,37.2,22.9,30.04,SW,228,2.7,4.6,56,0.00,FEW,,0.00,WeatherDisplay:10.37,2013-02-24 21:20:00,
2013-02-24 15:25:00,37.2,22.9,30.04,SW,218,4.2,5.8,56,0.00,FEW,,0.00,WeatherDisplay:10.37,2013-02-24 21:25:00,
2013-02-24 15:30:00,37.7,23.8,30.04,South,178,2.8,5.8,57,0.00,FEW,,0.00,WeatherDisplay:10.37,2013-02-24 21:30:00,
2013-02-24 15:35:00,38.0,23.7,30.05,SSW,204,2.8,4.6,56,0.00,FEW,,0.00,WeatherDisplay:10.37,2013-02-24 21:35:00,
2013-02-24 15:40:00,38.0,23.3,30.04,South,171,1.6,3.5,55,0.00,FEW,,0.00,WeatherDisplay:10.37,2013-02-24 21:40:00,
2013-02-24 15:45:00,38.2,23.4,30.04,SSW,208,4.5,7.3,55,0.00,FEW,,0.00,WeatherDisplay:10.37,2013-02-24 21:45:00,
2013-02-24 15:50:00,38.1,23.8,30.04,SSW,205,4.6,5.8,56,0.00,FEW,,0.00,WeatherDisplay:10.37,2013-02-24 21:50:00,
2013-02-24 15:55:00,37.9,22.7,30.04,West,259,3.8,6.9,54,0.00,FEW,,0.00,WeatherDisplay:10.37,2013-02-24 21:55:00,
2013-02-24 16:00:00,37.4,23.1,30.04,SSW,199,5.1,8.1,56,0.00,FEW,,0.00,WeatherDisplay:10.37,2013-02-24 22:00:00,
2013-02-24 16:05:00,37.2,22.9,30.04,SW,235,3.8,5.8,56,0.00,FEW,,0.00,WeatherDisplay:10.37,2013-02-24 22:05:00,
2013-02-24 16:10:00,37.1,22.8,30.04,WSW,257,3.1,5.8,56,0.00,FEW,,0.00,WeatherDisplay:10.37,2013-02-24 22:10:00,
2013-02-24 16:15:00,37.3,23.4,30.04,SSW,192,0.1,1.1,57,0.00,FEW,,0.00,WeatherDisplay:10.37,2013-02-24 22:15:00,
2013-02-24 16:20:00,37.6,24.1,30.05,SSW,201,0.6,5.3,58,0.00,FEW,,0.00,WeatherDisplay:10.37,2013-02-24 22:20:00,
2013-02-24 16:25:00,37.5,23.6,30.05,SSW,199,1.3,4.5,57,0.00,FEW,,0.00,WeatherDisplay:10.37,2013-02-24 22:25:00,
2013-02-24 16:30:00,37.2,22.9,30.05,SE,136,3.0,4.6,56,0.00,FEW,,0.00,WeatherDisplay:10.37,2013-02-24 22:30:00,
2013-02-24 16:35:00,36.8,23.0,30.04,SSW,195,3.2,6.9,57,0.00,FEW,,0.00,WeatherDisplay:10.37,2013-02-24 22:35:00,
2013-02-24 16:40:00,36.0,22.6,30.04,SE,141,4.2,6.9,58,0.00,FEW,,0.00,WeatherDisplay:10.37,2013-02-24 22:40:00,
2013-02-24 16:45:00,35.6,22.7,30.05,South,171,2.7,6.9,59,0.00,FEW,,0.00,WeatherDisplay:10.37,2013-02-24 22:45:00,
2013-02-24 16:50:00,34.9,22.4,30.05,SSE,156,4.3,6.9,60,0.00,FEW,,0.00,WeatherDisplay:10.37,2013-02-24 22:50:00,
2013-02-24 16:55:00,34.3,22.6,30.04,ESE,115,0.3,1.1,62,0.00,FEW,,0.00,WeatherDisplay:10.37,2013-02-24 22:55:00,
2013-02-24 17:00:00,34.0,22.7,30.04,SE,124,0.0,0.0,63,0.00,FEW,,0.00,WeatherDisplay:10.37,2013-02-24 23:00:00,
2013-02-24 17:05:00,33.6,22.7,30.04,ESE,110,1.6,3.5,64,0.00,CLR,,0.00,WeatherDisplay:10.37,2013-02-24 23:05:00,
2013-02-24 17:10:00,33.1,22.6,30.04,ESE,103,1.0,4.1,65,0.00,CLR,,0.00,WeatherDisplay:10.37,2013-02-24 23:10:00,
2013-02-24 17:15:00,32.7,22.6,30.05,SE,124,1.0,2.7,66,0.00,CLR,,0.00,WeatherDisplay:10.37,2013-02-24 23:15:00,
2013-02-24 17:20:00,32.4,22.3,30.05,SSE,154,1.0,2.3,66,0.00,CLR,,0.00,WeatherDisplay:10.37,2013-02-24 23:20:00,
2013-02-24 17:25:00,32.1,22.4,30.05,South,181,4.0,5.8,67,0.00,CLR,,0.00,WeatherDisplay:10.37,2013-02-24 23:25:00,
2013-02-24 17:30:00,31.7,22.3,30.05,SSW,206,1.1,2.3,68,0.00,CLR,,0.00,WeatherDisplay:10.37,2013-02-24 23:30:00,
2013-02-24 17:35:00,31.5,22.1,30.05,South,181,3.3,5.8,68,0.00,CLR,,0.00,WeatherDisplay:10.37,2013-02-24 23:35:00,
2013-02-24 17:40:00,31.3,22.3,30.05,SSW,198,3.0,4.6,69,0.00,CLR,,0.00,WeatherDisplay:10.37,2013-02-24 23:40:00,
2013-02-24 17:45:00,31.1,22.1,30.06,SSE,150,2.0,3.5,69,0.00,CLR,,0.00,WeatherDisplay:10.37,2013-02-24 23:45:00,
2013-02-24 17:50:00,30.9,22.3,30.06,SSE,154,0.7,2.3,70,0.00,CLR,,0.00,WeatherDisplay:10.37,2013-02-24 23:50:00,
2013-02-24 17:55:00,30.5,22.2,30.05,SSW,201,1.5,4.6,71,0.00,CLR,,0.00,WeatherDisplay:10.37,2013-02-24 23:55:00,
2013-02-24 18:00:00,30.4,22.1,30.06,South,174,0.0,0.0,71,0.00,CLR,,0.00,WeatherDisplay:10.37,2013-02-25 00:00:00,
2013-02-24 18:05:00,30.1,22.2,30.06,SSW,195,3.0,5.8,72,0.00,CLR,,0.00,WeatherDisplay:10.37,2013-02-25 00:05:00,
2013-02-24 18:10:00,29.9,22.0,30.06,SE,139,1.6,2.3,72,0.00,CLR,,0.00,WeatherDisplay:10.37,2013-02-25 00:10:00,
2013-02-24 18:15:00,29.7,22.1,30.06,SE,136,0.6,2.3,73,0.00,CLR,,0.00,WeatherDisplay:10.37,2013-02-25 00:15:00,
2013-02-24 18:20:00,29.5,21.9,30.06,South,189,1.1,2.3,73,0.00,CLR,,0.00,WeatherDisplay:10.37,2013-02-25 00:20:00,
2013-02-24 18:25:00,29.4,21.8,30.07,SW,216,2.5,3.5,73,0.00,CLR,,0.00,WeatherDisplay:10.37,2013-02-25 00:25:00,
2013-02-24 18:30:00,29.3,21.7,30.08,SSW,204,3.4,6.9,73,0.00,CLR,,0.00,WeatherDisplay:10.37,2013-02-25 00:30:00,
2013-02-24 18:35:00,29.3,21.7,30.08,SSE,167,2.7,3.5,73,0.00,CLR,,0.00,WeatherDisplay:10.37,2013-02-25 00:35:00,
2013-02-24 18:40:00,29.1,21.5,30.08,SE,134,3.3,4.6,73,0.00,CLR,,0.00,WeatherDisplay:10.37,2013-02-25 00:40:00,
2013-02-24 18:45:00,29.1,21.5,30.08,SSW,192,1.1,4.1,73,0.00,CLR,,0.00,WeatherDisplay:10.37,2013-02-25 00:45:00,
2013-02-24 18:50:00,28.9,21.3,30.08,SW,229,1.9,2.3,73,0.00,CLR,,0.00,WeatherDisplay:10.37,2013-02-25 00:50:00,
2013-02-24 18:55:00,28.7,21.1,30.08,SSW,194,0.9,2.3,73,0.00,CLR,,0.00,WeatherDisplay:10.37,2013-02-25 00:55:00,
2013-02-24 19:00:00,28.4,20.8,30.08,SSW,199,0.0,0.0,73,0.00,CLR,,0.00,WeatherDisplay:10.37,2013-02-25 01:00:00,
2013-02-24 19:05:00,28.3,21.1,30.08,SE,132,0.0,1.1,74,0.00,CLR,,0.00,WeatherDisplay:10.37,2013-02-25 01:05:00,
2013-02-24 19:10:00,28.0,20.8,30.08,ESE,117,0.0,1.1,74,0.00,CLR,,0.00,WeatherDisplay:10.37,2013-02-25 01:10:00,
2013-02-24 19:15:00,27.8,20.6,30.08,South,174,0.0,0.0,74,0.00,CLR,,0.00,WeatherDisplay:10.37,2013-02-25 01:15:00,
2013-02-24 19:20:00,27.7,20.5,30.08,SE,129,0.0,0.0,74,0.00,CLR,,0.00,WeatherDisplay:10.37,2013-02-25 01:20:00,
2013-02-24 19:25:00,27.4,20.2,30.07,SE,129,0.0,0.0,74,0.00,CLR,,0.00,WeatherDisplay:10.37,2013-02-25 01:25:00,
2013-02-24 19:30:00,27.3,20.1,30.07,SE,129,0.0,0.0,74,0.00,CLR,,0.00,WeatherDisplay:10.37,2013-02-25 01:30:00,
2013-02-24 19:35:00,27.1,20.2,30.08,SE,129,0.0,0.0,75,0.00,CLR,,0.00,WeatherDisplay:10.37,2013-02-25 01:35:00,
2013-02-24 19:40:00,27.0,20.1,30.07,SE,129,0.0,0.0,75,0.00,CLR,,0.00,WeatherDisplay:10.37,2013-02-25 01:40:00,
2013-02-24 19:45:00,26.8,19.9,30.08,SE,129,0.1,0.5,75,0.00,CLR,,0.00,WeatherDisplay:10.37,2013-02-25 01:45:00,
2013-02-24 19:50:00,26.6,19.7,30.08,SE,129,0.0,0.0,75,0.00,CLR,,0.00,WeatherDisplay:10.37,2013-02-25 01:50:00,
2013-02-24 19:55:00,26.6,20.1,30.07,SE,132,0.1,1.1,76,0.00,CLR,,0.00,WeatherDisplay:10.37,2013-02-25 01:55:00,
2013-02-24 20:00:00,26.4,19.9,30.08,ESE,108,0.0,3.5,76,0.00,CLR,,0.00,WeatherDisplay:10.37,2013-02-25 02:00:00,
2013-02-24 20:05:00,26.5,20.0,30.08,ESE,108,0.0,0.0,76,0.00,CLR,,0.00,WeatherDisplay:10.37,2013-02-25 02:05:00,
2013-02-24 20:10:00,26.5,20.0,30.08,ESE,108,0.0,0.0,76,0.00,CLR,,0.00,WeatherDisplay:10.37,2013-02-25 02:10:00,
2013-02-24 20:15:00,26.6,20.1,30.08,SSE,168,0.0,2.3,76,0.00,CLR,,0.00,WeatherDisplay:10.37,2013-02-25 02:15:00,
2013-02-24 20:20:00,26.6,20.1,30.08,South,174,0.0,0.0,76,0.00,CLR,,0.00,WeatherDisplay:10.37,2013-02-25 02:20:00,
2013-02-24 20:25:00,26.7,20.1,30.08,South,174,0.0,0.0,76,0.00,CLR,,0.00,WeatherDisplay:10.37,2013-02-25 02:25:00,
2013-02-24 20:30:00,26.7,20.1,30.08,East,88,1.5,4.6,76,0.00,CLR,,0.00,WeatherDisplay:10.37,2013-02-25 02:30:00,
2013-02-24 20:35:00,26.8,20.2,30.08,SSW,205,1.6,3.5,76,0.00,CLR,,0.00,WeatherDisplay:10.37,2013-02-25 02:35:00,
2013-02-24 20:40:00,26.9,20.3,30.08,South,191,3.4,4.6,76,0.00,CLR,,0.00,WeatherDisplay:10.37,2013-02-25 02:40:00,
2013-02-24 20:45:00,26.9,20.3,30.08,SSW,201,1.9,4.6,76,0.00,CLR,,0.00,WeatherDisplay:10.37,2013-02-25 02:45:00,
2013-02-24 20:50:00,26.8,19.9,30.08,SW,223,4.1,4.1,75,0.00,CLR,,0.00,WeatherDisplay:10.37,2013-02-25 02:50:00,
2013-02-24 20:55:00,26.8,19.9,30.08,South,191,3.3,4.6,75,0.00,CLR,,0.00,WeatherDisplay:10.37,2013-02-25 02:55:00,
2013-02-24 21:00:00,26.6,20.1,30.08,SE,140,2.4,3.0,76,0.00,CLR,,0.00,WeatherDisplay:10.37,2013-02-25 03:00:00,
2013-02-24 21:05:00,26.4,19.9,30.08,SE,146,0.0,1.1,76,0.00,CLR,,0.00,WeatherDisplay:10.37,2013-02-25 03:05:00,
2013-02-24 21:10:00,26.3,20.1,30.08,WSW,237,3.7,6.9,77,0.00,CLR,,0.00,WeatherDisplay:10.37,2013-02-25 03:10:00,
2013-02-24 21:15:00,26.1,19.9,30.08,SW,235,1.0,2.1,77,0.00,CLR,,0.00,WeatherDisplay:10.37,2013-02-25 03:15:00,
2013-02-24 21:20:00,26.1,19.9,30.09,ESE,117,0.0,2.3,77,0.00,CLR,,0.00,WeatherDisplay:10.37,2013-02-25 03:20:00,
2013-02-24 21:25:00,25.9,19.7,30.08,West,281,0.0,0.0,77,0.00,CLR,,0.00,WeatherDisplay:10.37,2013-02-25 03:25:00,
2013-02-24 21:30:00,25.7,19.8,30.08,South,189,0.0,0.0,78,0.00,CLR,,0.00,WeatherDisplay:10.37,2013-02-25 03:30:00,
2013-02-24 21:35:00,25.6,19.7,30.08,South,189,0.0,0.0,78,0.00,CLR,,0.00,WeatherDisplay:10.37,2013-02-25 03:35:00,
2013-02-24 21:40:00,25.3,19.4,30.08,South,189,0.0,0.0,78,0.00,CLR,,0.00,WeatherDisplay:10.37,2013-02-25 03:40:00,
2013-02-24 21:45:00,25.1,19.5,30.08,South,189,0.0,0.0,79,0.00,CLR,,0.00,WeatherDisplay:10.37,2013-02-25 03:45:00,
2013-02-24 21:50:00,24.8,19.5,30.08,WSW,242,0.2,1.1,80,0.00,CLR,,0.00,WeatherDisplay:10.37,2013-02-25 03:50:00,
2013-02-24 21:55:00,24.7,19.4,30.08,WSW,242,0.0,0.0,80,0.00,CLR,,0.00,WeatherDisplay:10.37,2013-02-25 03:55:00,
2013-02-24 22:01:00,24.6,19.3,30.08,WSW,242,0.0,0.0,80,0.00,CLR,,0.00,WeatherDisplay:10.37,2013-02-25 04:01:00,
2013-02-24 22:06:00,24.4,19.4,30.08,WSW,242,0.0,0.0,81,0.00,CLR,,0.00,WeatherDisplay:10.37,2013-02-25 04:06:00,
2013-02-24 22:11:00,24.5,19.8,30.09,SSW,208,1.9,3.5,82,0.00,CLR,,0.00,WeatherDisplay:10.37,2013-02-25 04:11:00,
2013-02-24 22:16:00,24.4,20.0,30.08,South,191,0.0,0.0,83,0.00,CLR,,0.00,WeatherDisplay:10.37,2013-02-25 04:16:00,
2013-02-24 22:21:00,24.6,20.2,30.08,SSE,151,0.9,4.6,83,0.00,CLR,,0.00,WeatherDisplay:10.37,2013-02-25 04:21:00,
2013-02-24 22:26:00,24.7,20.3,30.08,SSE,151,0.0,0.0,83,0.00,CLR,,0.00,WeatherDisplay:10.37,2013-02-25 04:26:00,
2013-02-24 22:31:00,24.7,20.3,30.08,SSE,151,0.0,0.0,83,0.00,CLR,,0.00,WeatherDisplay:10.37,2013-02-25 04:31:00,
2013-02-24 22:36:00,24.8,20.4,30.08,SE,126,0.0,0.0,83,0.00,CLR,,0.00,WeatherDisplay:10.37,2013-02-25 04:36:00,
2013-02-24 22:41:00,24.6,20.2,30.08,SE,126,0.0,0.0,83,0.00,CLR,,0.00,WeatherDisplay:10.37,2013-02-25 04:41:00,
2013-02-24 22:46:00,24.5,20.1,30.08,SE,126,0.0,0.0,83,0.00,CLR,,0.00,WeatherDisplay:10.37,2013-02-25 04:46:00,
2013-02-24 22:51:00,24.2,19.8,30.08,SE,126,0.0,0.0,83,0.00,CLR,,0.00,WeatherDisplay:10.37,2013-02-25 04:51:00,
2013-02-24 22:56:00,24.0,19.9,30.08,SE,126,0.0,0.0,84,0.00,CLR,,0.00,WeatherDisplay:10.37,2013-02-25 04:56:00,
2013-02-24 23:00:00,24.0,19.8,30.08,SE,126,0.0,2.0,84,0.00,CLR,CLR,0.00,WeatherDisplay:10.37,2013-02-25 05:00:00,
2013-02-24 23:05:00,24.0,20.1,30.08,South,191,0.0,0.0,85,0.00,CLR,,0.00,WeatherDisplay:10.37,2013-02-25 05:05:00,
2013-02-24 23:10:00,24.0,20.4,30.08,South,188,0.8,4.6,86,0.00,CLR,,0.00,WeatherDisplay:10.37,2013-02-25 05:10:00,
2013-02-24 23:15:00,24.3,20.7,30.08,SSW,198,0.9,2.1,86,0.00,CLR,,0.00,WeatherDisplay:10.37,2013-02-25 05:15:00,
2013-02-24 23:20:00,24.5,20.9,30.08,SSW,198,1.5,3.5,86,0.00,CLR,,0.00,WeatherDisplay:10.37,2013-02-25 05:20:00,
2013-02-24 23:25:00,24.4,20.8,30.09,South,187,0.2,1.1,86,0.00,CLR,,0.00,WeatherDisplay:10.37,2013-02-25 05:25:00,
2013-02-24 23:30:00,24.4,20.5,30.09,South,187,0.0,0.0,85,0.00,CLR,,0.00,WeatherDisplay:10.37,2013-02-25 05:30:00,
2013-02-24 23:35:00,24.4,20.5,30.09,South,187,0.0,0.0,85,0.00,CLR,,0.00,WeatherDisplay:10.37,2013-02-25 05:35:00,
2013-02-24 23:40:00,24.3,20.4,30.09,South,187,0.0,0.0,85,0.00,CLR,,0.00,WeatherDisplay:10.37,2013-02-25 05:40:00,
2013-02-24 23:45:00,24.2,20.6,30.08,South,187,0.0,0.0,86,0.00,CLR,,0.00,WeatherDisplay:10.37,2013-02-25 05:45:00,
2013-02-24 23:50:00,24.1,20.5,30.09,South,189,0.0,0.0,86,0.00,CLR,,0.00,WeatherDisplay:10.37,2013-02-25 05:50:00,
2013-02-24 23:55:00,24.0,20.4,30.08,South,189,0.0,0.0,86,0.00,CLR,,0.00,WeatherDisplay:10.37,2013-02-25 05:55:00,